Regional Weather Roundup
Issued by NWS

Home | Current Version | Previous Version | Graphics & Text | Print | Product List | Glossary On
Versions: 1 2 3 4 5 6 7 8 9 10 11 12 13 14 15 16 17 18 19 20 21 22 23 24 25 26 27 28 29 30 31 32 33 34 35 36 37 38 39 40 41 42 43 44 45 46 47 48 49 50
000
ASUS45 KSLC 210010
RWRUT

UTAH REGIONAL WEATHER ROUNDUP
NATIONAL WEATHER SERVICE SALT LAKE CITY UT
500 PM MST SAT DEC 20 2014

UTZ001>011-023>025-210100-

NORTHERN UTAH

CITY           SKY/WX    TMP DP  RH WIND       PRES   REMARKS
BRIGHAM CITY   CLOUDY    39  35  83 W3        30.08R
HILL AFB       CLOUDY    38  37  99 S7        30.06S WCI  32
LOGAN          CLOUDY    39  34  82 SE7       30.04S WCI  34
OGDEN          CLOUDY    39  36  89 S5        30.06S
PROVO AIRPORT  CLOUDY    37  34  87 CALM      30.08F
SALT LAKE CITY CLOUDY    41  35  79 SE7       30.06S
VERNAL         CLOUDY    29  27  92 E5        30.09F FOG     WCI  24
WENDOVER       CLOUDY    37  28  70 NE3       30.05F
HEBER CITY     CLOUDY    36  32  87 N5        30.05S WCI  32
WEST JORDAN    CLOUDY    37  37 100 S15       30.07R WCI  28

$$

UTZ012>022-026-027-210100-

SOUTHERN/CENTRAL UTAH

CITY           SKY/WX    TMP DP  RH WIND       PRES   REMARKS
BLANDING       CLOUDY    33  31  92 CALM      30.18F
BRYCE CANYON   CLOUDY    31  26  82 CALM      30.11R
CEDAR CITY     CLOUDY    39  29  67 SW6       30.08F WCI  35
DELTA          CLOUDY    40  33  76 SE5       30.07F
MILFORD        CLOUDY    42  29  59 S14       30.07S
MOAB/CYNLANDS  CLOUDY    37  32  82 CALM      30.11F
PRICE          CLOUDY    31  26  82 SE3       30.10F
ST GEORGE      CLOUDY    48  34  57 CALM      30.13S
KANAB            N/A     41  32  70 CALM      30.16R

$$

REGIONAL REPORTS     COLORADO/ARIZONA

CITY           SKY/WX    TMP DP  RH WIND       PRES   REMARKS
CRAIG, CO      LGT SNOW  30  26  85 E5        30.06R FOG     WCI  25
GRAND JUNCTION CLOUDY    36  27  69 NW7       30.12S WCI  30
RIFLE          CLOUDY    35  23  61 CALM      30.10S
MONTROSE       CLOUDY    35  23  61 N5        30.11S WCI  31
CORTEZ         CLEAR     36  28  73 CALM      30.11R
PAGE, AZ       CLOUDY    41  30  65 N5        30.15R
GRAND CANYON   MOCLDY    42  24  49 CALM      30.14R
KINGMAN        PTCLDY    52  30  43 W5        30.10R
FLAGSTAFF      PTCLDY    40  27  59 SW10      30.13R WCI  33

$$

REGIONAL REPORTS    NEVADA/IDAHO/WYOMING

CITY           SKY/WX    TMP DP  RH WIND       PRES   REMARKS
LAS VEGAS, NV  MOCLDY    54  37  52 E6        30.09R
ELY            CLOUDY    38  31  76 CALM      30.10R
ELKO           LGT RAIN  38  35  89 SW12      30.07R WCI  30
POCATELLO, ID  CLOUDY    40  34  79 S14       29.99F WCI  32
BURLEY         LGT RAIN  41  35  79 SW13      29.99R
EVANSTON, WY   PTCLDY    29  27  92 SW16      30.00F WCI  17
ROCK SPRINGS   CLOUDY    31  28  89 SW18      30.00S WCI  19
KEMMERER       CLOUDY    30  28  93 W12       29.99F WCI  21

$$



USA.gov is the U.S. government's official web portal to all federal, state and local government web resources and services.